RH
42 39 38 37 34 34 30 30 30 31 32 36 40 40 40 38 56 64 40 38 42 37 36 31 28 31 28 25 21 20 21 20 21
47 48 44 42 38 39 34 32 33 34 36 39 42 40 44 47 58 65 40 55 39 37 35 31 30 44 41 36 25 27 27 25 18
46 39 46 46 38 42 36 35 34 38 40 41 41 42 42 45 47 51 48 42 40 38 38 32 40 49 39 27 30 28 21 16 14
38 36 35 49 40 38 36 38 38 40 44 43 41 39 38 42 45 46 43 45 49 44 45 38 43 40 30 33 29 19 16 15 13
39 30 34 44 42 37 38 39 40 41 42 43 39 39 35 39 47 47 44 46 54 48 45 39 36 32 34 29 19 18 15 14 14
34 29 31 38 40 40 40 41 41 41 41 42 41 36 37 44 48 46 49 50 50 53 41 39 38 33 27 20 20 18 15 16 15
33 34 33 38 41 42 43 42 41 41 42 44 42 37 42 44 38 34 39 40 47 48 46 38 28 26 23 22 19 18 18 17 16
42 47 48 43 44 47 45 43 44 46 48 44 39 42 45 42 33 27 37 36 46 49 32 24 21 24 23 22 19 21 18 18 17
57 56 68 58 56 56 54 57 57 50 45 42 42 46 43 25 20 25 40 43 38 24 23 21 21 22 24 23 24 22 20 20 20
51 52 61 62 57 65 55 55 52 48 41 44 49 47 23 17 21 33 34 28 23 21 22 20 19 22 26 28 26 22 22 22 23
88 86 78 68 60 54 61 53 47 47 52 52 51 44 23 20 21 22 22 23 21 19 20 18 20 28 31 28 27 26 26 26 26
100 100 92 77 66 66 70 56 56 62 62 62 51 44 25 22 22 22 21 21 25 27 25 25 28 34 35 36 31 31 28 28 30
92 91 89 90 79 73 72 62 59 72 73 61 52 46 32 24 24 25 25 26 30 29 29 34 39 44 45 35 34 35 35 32 31
100 100 96 91 77 88 89 74 72 81 70 61 52 48 47 44 41 38 33 30 33 34 35 43 41 42 44 42 37 36 35 35 33
94 90 73 93 100 88 94 93 89 77 73 63 53 49 47 41 37 34 31 35 40 43 47 45 47 46 37 39 42 38 38 33 35
84 70 73 89 85 89 88 89 91 80 72 67 59 43 37 35 37 39 38 45 48 54 53 49 42 45 42 41 42 37 42 37 35
83 80 89 86 98 99 96 95 95 92 84 79 63 51 44 46 47 50 45 44 50 46 42 45 49 53 50 53 49 39 45 42 41
66 99 100 100 100 100 100 100 94 83 78 74 68 61 54 54 55 52 45 46 45 45 47 45 48 51 56 50 50 68 63 44 41
73 79 100 100 95 100 100 96 72 70 68 66 75 72 64 58 63 56 48 47 45 43 47 46 47 49 53 48 59 86 67 61 45
74 67 65 100 96 100 74 62 60 64 62 73 72 75 68 64 57 44 48 51 49 56 51 43 49 40 47 59 85 64 71 71 62
Wind_Speed
30 30 30 28 26 23 24 24 23 24 25 25 27 30 30 29 26 30 33 33 36 37 37 36 36 36 38 39 42 44 45 46 48
34 34 32 30 29 26 27 26 26 26 27 27 29 31 31 31 30 33 32 36 37 37 37 38 36 38 42 43 42 42 42 41 42
38 37 36 33 29 26 28 28 30 29 28 30 31 34 33 33 32 34 34 37 37 37 39 41 39 42 45 44 41 39 39 41 45
41 39 38 35 30 28 29 30 30 30 31 34 36 37 35 34 34 35 34 37 38 39 40 41 41 44 42 38 37 37 40 45 48
41 37 36 34 32 30 30 31 33 33 35 38 40 39 38 34 34 35 36 39 39 39 40 40 41 40 37 35 36 41 45 47 47
41 40 36 34 33 33 33 34 35 36 38 41 41 40 36 35 35 37 38 39 37 38 39 38 39 37 35 35 40 46 47 45 47
42 41 38 34 34 35 36 36 37 38 41 42 42 38 36 35 36 36 36 37 35 36 37 37 35 34 34 39 45 48 45 46 48
45 43 41 39 36 36 38 37 39 40 42 44 40 36 36 37 38 36 34 32 30 35 35 33 32 33 37 43 47 46 46 47 50
48 45 41 42 40 39 39 39 41 42 42 41 36 34 37 37 36 31 28 30 31 29 31 32 33 36 40 45 45 45 46 49 51
52 47 45 42 43 43 42 42 44 43 42 36 33 32 32 32 27 25 25 27 29 31 32 33 36 38 42 44 44 45 47 50 50
44 44 45 45 44 42 40 40 40 36 34 33 30 31 29 26 22 22 25 27 30 35 38 38 36 38 41 42 44 45 47 48 49
43 45 44 44 44 41 40 40 36 33 31 30 29 30 28 25 24 24 27 30 35 40 40 38 36 37 38 45 44 46 46 48 49
38 38 38 39 40 38 37 36 35 32 31 30 29 29 28 27 27 29 32 34 41 40 37 35 35 36 41 43 45 46 47 48 49
35 37 37 37 32 31 30 31 31 31 31 30 29 29 30 32 33 35 37 39 42 38 35 34 35 36 42 46 49 49 49 50 50
38 37 32 28 29 28 29 30 31 31 32 31 30 31 30 32 35 36 38 41 38 36 34 33 37 38 44 46 52 54 54 54 51
35 31 28 30 29 30 30 30 31 31 32 32 33 33 33 35 37 39 38 39 35 36 35 34 37 40 46 53 57 59 59 56 53
34 28 28 27 29 30 32 33 32 33 35 36 37 37 38 37 38 34 33 32 33 35 39 40 40 42 51 59 61 67 65 63 57
40 31 30 32 33 35 33 33 32 34 37 40 41 41 42 39 34 32 29 29 32 37 40 45 47 49 53 59 60 63 67 67 61
45 39 33 35 35 35 36 36 36 37 37 39 42 41 41 40 32 30 29 34 37 38 45 51 50 54 56 60 60 64 67 69 67
49 50 44 37 42 41 43 40 38 36 36 36 37 36 34 35 33 30 32 35 39 40 51 58 50 54 54 59 60 69 68 68 63
Wind_Direction
272 275 278 285 287 290 292 289 292 296 300 306 309 314 315 311 301 298 301 307 312 308 306 310 307 305 305 305 305 301 299 300 302
273 276 278 284 283 288 288 290 292 295 300 305 308 313 314 311 303 297 305 310 311 307 308 312 310 309 313 315 314 310 310 309 308
271 274 276 281 281 285 284 288 291 297 302 303 307 310 312 310 306 303 309 311 313 309 311 314 311 312 316 319 318 318 317 315 315
272 276 275 275 278 281 282 281 286 296 301 306 305 308 308 307 305 306 312 310 311 310 309 312 313 315 319 322 321 321 321 321 320
269 270 271 270 275 277 280 282 288 295 300 304 304 307 308 306 305 307 310 308 307 308 312 314 316 319 325 325 327 328 326 325 325
267 270 272 269 271 273 276 281 287 292 296 301 305 309 307 306 306 306 305 306 308 309 313 317 321 323 329 330 332 330 330 329 330
271 272 273 271 269 270 273 278 285 289 296 301 306 306 305 305 306 306 306 309 310 313 315 321 325 328 330 333 334 333 333 333 335
272 273 273 273 272 271 273 279 284 290 296 301 304 304 306 307 305 305 307 309 313 315 321 326 330 331 333 334 334 334 335 336 339
266 267 270 273 273 272 275 281 285 291 296 300 300 304 306 304 303 306 309 315 318 322 324 329 330 331 334 334 334 335 337 339 340
264 265 266 271 273 274 279 282 285 289 294 295 298 302 305 304 306 307 315 323 326 326 327 330 330 332 334 335 336 337 339 342 342
265 265 266 270 273 274 278 283 288 288 288 292 295 302 302 307 313 321 321 324 326 326 325 326 330 331 334 338 337 339 342 342 343
267 266 264 268 271 273 278 283 285 283 286 288 293 299 301 305 311 315 318 324 327 324 324 326 330 331 334 338 339 341 342 342 344
261 263 265 266 269 271 278 280 279 281 281 284 293 294 298 303 308 311 314 319 326 327 325 327 330 337 340 341 344 342 343 342 345
264 266 266 265 265 268 270 274 277 278 279 283 289 292 294 296 301 307 312 317 322 326 326 329 335 337 337 342 342 342 343 343 344
261 261 259 259 263 265 269 273 274 276 279 283 287 291 296 300 306 310 313 317 320 325 327 331 334 333 336 339 341 342 341 342 343
256 253 254 257 262 268 272 275 274 275 277 281 286 291 294 301 307 310 316 319 319 324 325 328 332 333 339 338 339 341 343 342 341
248 253 256 259 264 271 276 274 273 275 280 283 286 288 293 301 307 311 318 322 324 331 333 323 322 326 331 333 333 339 342 341 339
246 245 252 261 266 271 277 277 275 278 280 282 283 288 294 300 303 308 319 325 325 324 327 329 322 320 327 332 331 338 342 343 337
250 240 244 253 256 266 265 267 272 280 283 287 284 285 291 295 296 305 310 323 324 324 328 329 328 326 325 330 333 337 338 338 338
249 248 242 251 253 259 261 269 273 278 282 284 285 288 292 293 295 300 313 319 323 318 325 329 324 329 325 330 335 337 339 335 337